Location: Strawberry
(45.6646°N, 111.9596°W)
Time: 09:13:27
(UTC+00:00)

XW-2D - Visible Passes

Search period start: 26 November 2022 00:00
Search period end: 06 December 2022 00:00
Orbit: 491 x 509 km, 97.5° (Epoch: 25 November)

Date Brightness Start Highest point End Pass type
(mag) Time Alt. Az. Time Alt. Az. Time Alt. Az.
26 Nov ? 00:36:24 10° SSE 00:40:05 73° ENE 00:43:46 10° N visible
26 Nov ? 13:36:56 10° NNE 13:40:35 71° ESE 13:44:11 10° S visible
27 Nov ? 00:17:01 10° SE 00:20:30 41° ENE 00:23:59 10° N visible
27 Nov ? 01:52:19 10° SW 01:54:27 15° W 01:56:35 10° NW visible
27 Nov ? 13:17:27 10° NNE 13:20:54 39° E 13:24:19 10° S visible
28 Nov ? 01:31:38 10° SSW 01:34:40 24° W 01:37:42 10° NW visible
28 Nov ? 12:58:12 10° NE 13:01:10 23° E 13:04:06 10° SSE visible
29 Nov ? 01:11:27 10° S 01:14:55 40° W 01:18:25 10° NNW visible
29 Nov ? 12:39:21 10° ENE 12:41:21 14° E 12:43:20 10° SE visible
29 Nov ? 14:11:51 10° N 14:15:19 42° WNW 14:18:45 10° SW visible
30 Nov ? 00:51:34 10° S 00:55:14 72° WSW 00:58:55 10° NNW visible
30 Nov ? 13:52:03 10° N 13:55:42 75° WNW 13:59:18 10° SSW visible
01 Dec ? 00:31:57 10° SSE 00:35:34 64° ENE 00:39:12 10° N visible
01 Dec ? 13:32:25 10° NNE 13:36:01 61° E 13:39:36 10° S visible
02 Dec ? 00:12:34 10° SE 00:15:57 36° ENE 00:19:21 10° N visible
02 Dec ? 01:47:27 10° SW 01:49:50 16° W 01:52:14 10° NW visible
02 Dec ? 13:12:55 10° NNE 13:16:16 34° E 13:19:37 10° SSE visible
03 Dec ? 01:26:51 10° SSW 01:30:01 27° W 01:33:11 10° NW visible
03 Dec ? 12:53:40 10° NE 12:56:28 20° E 12:59:14 10° SE visible
04 Dec ? 01:06:41 10° S 01:10:13 46° W 01:13:47 10° NNW visible
04 Dec ? 12:35:00 10° ENE 12:36:35 12° E 12:38:10 10° ESE visible
04 Dec ? 14:07:05 10° N 14:10:37 48° WNW 14:14:07 10° SSW visible
05 Dec ? 00:46:50 10° SSE 00:50:29 84° WSW 00:54:09 10° NNW visible
05 Dec ? 13:47:16 10° NNE 13:50:56 86° W 13:54:33 10° SSW visible
